Regional Weather Roundup
Issued by NWS

Home | Current Version | Previous Version | Graphics & Text | Print | Product List | Glossary On
Versions: 1 2 3 4 5 6 7 8 9 10 11 12 13 14 15 16 17 18 19 20 21 22 23 24 25 26 27 28 29 30 31 32 33 34 35 36 37 38 39 40 41 42 43 44 45 46 47 48 49 50
000
ASUS43 KLMK 270802
RWRKY
KENTUCKY REGIONAL WEATHER ROUNDUP
NATIONAL WEATHER SERVICE LOUISVILLE KY
400 AM EDT TUE JUN 27 2017

NOTE "FAIR" INDICATES FEW OR NO CLOUDS BELOW 12,000 FEET
WITH NO SIGNIFICANT WEATHER AND/OR OBSTRUCTIONS TO VISIBILITY.

KYZ001>023-026-027-061>063-070>075-270900-
WESTERN AND SOUTH CENTRAL KENTUCKY

CITY           SKY/WX    TMP DP  RH WIND       PRES   REMARKS
PADUCAH        CLOUDY    64  58  80 CALM      30.10S
HENDERSON      CLEAR     55  53  93 CALM      30.12S
OWENSBORO      CLEAR     61  55  81 CALM      30.12R
HOPKINSVILLE   CLOUDY    62  58  85 CALM      30.10R
BOWLING GREEN  CLEAR     61  58  90 CALM      30.10S
GLASGOW        NOT AVBL
$$

KYZ024-025-028>034-038-045-046-053-270900-
NORTH CENTRAL KENTUCKY

CITY           SKY/WX    TMP DP  RH WIND       PRES   REMARKS
LOUISVILLE/SDF LGT RAIN  61  56  83 SE5       30.10F
LOUISVILLE/LOU MOCLDY    59  58  96 SW6       30.12F
FORT KNOX      PTCLDY    58  52  81 E3        30.09F
$$

KYZ035>037-039>044-047>052-055>060-089>105-270900-
NORTHEAST KENTUCKY

CITY           SKY/WX    TMP DP  RH WIND       PRES   REMARKS
LEXINGTON      LGT RAIN  59  50  72 NW10G17   30.14R
COVINGTON      CLEAR     55  49  80 W7        30.09F
FRANKFORT      CLOUDY    57  52  83 NW6       30.13R
$$

KYZ054-064>069-076>088-106>120-270900-
SOUTHEAST KENTUCKY

CITY           SKY/WX    TMP DP  RH WIND       PRES   REMARKS
JACKSON        PTCLDY    61  50  67 CALM      30.11S
LONDON         PTCLDY    55  53  93 CALM      30.11F
SOMERSET       CLOUDY    54  54 100 CALM      30.13S
MIDDLESBORO    PTCLDY    56  55  99 CALM      30.12F
MONTICELLO     MOSUNNY   56  55  97 NE8       30.13F
$$




USA.gov is the U.S. government's official web portal to all federal, state and local government web resources and services.